User: anonymous   Login
Location: ?
(35.4214°N, 139.3011°E)
Time: 22:56:44
(UTC+00:00)
Language:

Atlas Centaur 2 - Orbit

View from above orbital plane
View from above orbital plane
View from above satellite
View from above satellite

Ground track
Ground track

The orbit data is extracted from the following two-line orbital elements,

1   694U 63047A   20263.56682805 +.00000185 +00000-0 +83688-5 0  9994
2   694 030.3599 092.6063 0585849 283.9395 069.6749 14.02641533850322
Epoch (UTC): 19 September 2020 13:36:13
Eccentricity: 0.0585849
inclination: 30.3599°
perigee height: 459 km
apogee height: 1310 km
right ascension of ascending node: 92.6063°
argument of perigee: 283.9395°
revolutions per day: 14.02641533
mean anomaly at epoch: 69.6749°
orbit number at epoch: 85032

The dashed part of the orbit path shows where the satellite is in the earth's shadow,  

DLR